WOL05VK EGKK-EGJJ

Flight info

Callsign WOL05VK
Flight time 0h 35m
Altitude 20000
Route IMVUR1Z IMVUR N63 LELNA LELNA1K
Aircraft C750/M-SBDE3FGHRWXY/S

Departure

Time 2026-05-07 18:24
Airport London Gatwick Airport (EGKK)

Arrival

Time 2026-05-07 18:59
Airport Jersey Airport (EGJJ)
Time Latitude Longitude Altitude Speed Heading
2026-05-07 18:05 51.15314 -0.17991 202 ft 0 kts 348°
2026-05-07 18:12 51.15310 -0.17990 202 ft 3 kts 348°
2026-05-07 18:13 51.15293 -0.17984 208 ft 2 kts 348°
2026-05-07 18:13 51.15276 -0.17979 202 ft 2 kts 348°
2026-05-07 18:13 51.15260 -0.17973 211 ft 2 kts 348°
2026-05-07 18:13 51.15243 -0.17967 208 ft 2 kts 348°
2026-05-07 18:14 51.15232 -0.17964 204 ft 0 kts 346°
2026-05-07 18:14 51.15232 -0.17975 205 ft 0 kts 263°
2026-05-07 18:16 51.15224 -0.18018 203 ft 11 kts 252°
2026-05-07 18:16 51.15206 -0.18143 202 ft 12 kts 258°
2026-05-07 18:16 51.15187 -0.18280 208 ft 13 kts 256°
2026-05-07 18:16 51.15171 -0.18419 209 ft 15 kts 259°
2026-05-07 18:17 51.15147 -0.18605 201 ft 18 kts 258°
2026-05-07 18:17 51.15122 -0.18793 204 ft 17 kts 258°
2026-05-07 18:17 51.15097 -0.18973 208 ft 16 kts 258°
2026-05-07 18:17 51.15074 -0.19145 201 ft 15 kts 256°
2026-05-07 18:18 51.15051 -0.19306 201 ft 15 kts 256°
2026-05-07 18:18 51.15031 -0.19463 201 ft 14 kts 257°
2026-05-07 18:18 51.15010 -0.19608 206 ft 13 kts 257°
2026-05-07 18:18 51.14990 -0.19753 201 ft 14 kts 258°
2026-05-07 18:19 51.14970 -0.19901 207 ft 14 kts 256°
2026-05-07 18:19 51.14944 -0.20090 199 ft 25 kts 258°
2026-05-07 18:19 51.14906 -0.20364 199 ft 25 kts 258°
2026-05-07 18:19 51.14867 -0.20608 207 ft 20 kts 232°
2026-05-07 18:20 51.14764 -0.20738 197 ft 19 kts 253°
2026-05-07 18:20 51.14734 -0.20938 203 ft 18 kts 256°
2026-05-07 18:20 51.14702 -0.21155 198 ft 21 kts 258°
2026-05-07 18:20 51.14650 -0.21333 198 ft 14 kts 187°
2026-05-07 18:21 51.14630 -0.21329 198 ft 0 kts 169°
2026-05-07 18:22 51.14528 -0.21234 200 ft 22 kts 114°
2026-05-07 18:22 51.14527 -0.21125 206 ft 0 kts 77°
2026-05-07 18:23 51.14536 -0.21057 202 ft 30 kts 79°
2026-05-07 18:23 51.14663 -0.20105 213 ft 135 kts 78°
2026-05-07 18:24 51.14869 -0.18554 650 ft 153 kts 81°
2026-05-07 18:24 51.15113 -0.16783 1054 ft 177 kts 79°
2026-05-07 18:24 51.15402 -0.14708 1634 ft 204 kts 79°
2026-05-07 18:24 51.15719 -0.12382 2380 ft 221 kts 79°
2026-05-07 18:25 51.16033 -0.10123 3032 ft 214 kts 78°
2026-05-07 18:25 51.16417 -0.07782 2964 ft 220 kts 68°
2026-05-07 18:25 51.17432 -0.05961 2956 ft 223 kts 35°
2026-05-07 18:25 51.18937 -0.05203 3006 ft 243 kts
2026-05-07 18:26 51.20578 -0.05743 4208 ft 233 kts 339°
2026-05-07 18:26 51.21840 -0.07287 5516 ft 233 kts 311°
2026-05-07 18:26 51.22561 -0.09706 6194 ft 258 kts 282°
2026-05-07 18:26 51.22475 -0.12651 6957 ft 270 kts 259°
2026-05-07 18:27 51.22114 -0.15537 8363 ft 263 kts 258°
2026-05-07 18:27 51.21770 -0.18447 9479 ft 270 kts 259°
2026-05-07 18:27 51.21437 -0.21416 10495 ft 274 kts 259°
2026-05-07 18:27 51.21090 -0.24440 11371 ft 280 kts 258°
2026-05-07 18:28 51.20732 -0.27514 12260 ft 284 kts 258°
2026-05-07 18:28 51.20368 -0.30642 13165 ft 289 kts 258°
2026-05-07 18:28 51.19998 -0.33826 14032 ft 294 kts 258°
2026-05-07 18:28 51.19544 -0.37005 14774 ft 294 kts 256°
2026-05-07 18:29 51.19140 -0.40265 15043 ft 303 kts 258°
2026-05-07 18:29 51.18751 -0.43548 15041 ft 301 kts 257°
2026-05-07 18:29 51.18323 -0.46810 15041 ft 301 kts 256°
2026-05-07 18:29 51.17882 -0.50067 15039 ft 301 kts 256°
2026-05-07 18:30 51.17422 -0.53324 15033 ft 299 kts 253°
2026-05-07 18:30 51.16636 -0.56473 15054 ft 323 kts 245°
2026-05-07 18:30 51.15692 -0.59896 15061 ft 351 kts 245°
2026-05-07 18:30 51.14694 -0.63607 15062 ft 376 kts 246°
2026-05-07 18:31 51.13660 -0.67551 15062 ft 396 kts 246°
2026-05-07 18:31 51.12568 -0.71673 15056 ft 410 kts 246°
2026-05-07 18:31 51.11435 -0.75876 15055 ft 415 kts 246°
2026-05-07 18:31 51.10292 -0.80120 15053 ft 418 kts 246°
2026-05-07 18:32 51.09154 -0.84375 15053 ft 419 kts 246°
2026-05-07 18:32 51.08009 -0.88642 15051 ft 420 kts 246°
2026-05-07 18:32 51.06858 -0.92907 15049 ft 420 kts 246°
2026-05-07 18:32 51.05704 -0.97173 15051 ft 420 kts 246°
2026-05-07 18:33 51.04551 -1.01434 15051 ft 420 kts 246°
2026-05-07 18:33 51.03395 -1.05697 15050 ft 420 kts 246°
2026-05-07 18:33 51.02240 -1.09950 15051 ft 420 kts 246°
2026-05-07 18:33 51.01081 -1.14206 15050 ft 420 kts 246°
2026-05-07 18:34 50.99918 -1.18466 15053 ft 420 kts 246°
2026-05-07 18:34 50.98755 -1.22724 15053 ft 420 kts 246°
2026-05-07 18:34 50.97593 -1.26899 15048 ft 419 kts 244°
2026-05-07 18:34 50.96070 -1.30836 15038 ft 419 kts 233°
2026-05-07 18:35 50.94148 -1.34297 15039 ft 418 kts 224°
2026-05-07 18:35 50.91881 -1.37191 15039 ft 419 kts 214°
2026-05-07 18:35 50.89345 -1.39452 15041 ft 419 kts 207°
2026-05-07 18:35 50.86734 -1.41511 15052 ft 419 kts 207°
2026-05-07 18:36 50.84137 -1.43600 15053 ft 419 kts 207°
2026-05-07 18:36 50.81540 -1.45687 15050 ft 419 kts 207°
2026-05-07 18:36 50.78925 -1.47757 15049 ft 419 kts 207°
2026-05-07 18:36 50.76318 -1.49815 15046 ft 419 kts 207°
2026-05-07 18:37 50.73722 -1.51877 15044 ft 416 kts 207°
2026-05-07 18:37 50.71163 -1.53912 15043 ft 416 kts 207°
2026-05-07 18:37 50.68567 -1.55965 15043 ft 416 kts 207°
2026-05-07 18:37 50.65977 -1.58007 15042 ft 417 kts 207°
2026-05-07 18:38 50.63377 -1.60060 15031 ft 417 kts 207°
2026-05-07 18:38 50.60786 -1.62104 15018 ft 417 kts 207°
2026-05-07 18:38 50.58193 -1.64145 15019 ft 417 kts 207°
2026-05-07 18:38 50.55602 -1.66182 15019 ft 417 kts 207°
2026-05-07 18:39 50.53009 -1.68219 15019 ft 417 kts 207°
2026-05-07 18:39 50.50416 -1.70253 15018 ft 417 kts 207°
2026-05-07 18:39 50.47820 -1.72286 15018 ft 417 kts 207°
2026-05-07 18:39 50.45226 -1.74317 15018 ft 417 kts 207°
2026-05-07 18:40 50.42624 -1.76349 15019 ft 417 kts 207°
2026-05-07 18:40 50.40035 -1.78370 15015 ft 416 kts 207°
2026-05-07 18:40 50.37440 -1.80394 15015 ft 416 kts 207°
2026-05-07 18:40 50.34844 -1.82414 15016 ft 416 kts 207°
2026-05-07 18:41 50.32286 -1.84404 15018 ft 416 kts 207°
2026-05-07 18:41 50.29698 -1.86414 15018 ft 414 kts 207°
2026-05-07 18:41 50.27109 -1.88421 15018 ft 414 kts 207°
2026-05-07 18:41 50.24527 -1.90423 15018 ft 414 kts 207°
2026-05-07 18:42 50.21939 -1.92425 15020 ft 414 kts 207°
2026-05-07 18:42 50.19359 -1.94419 15020 ft 414 kts 207°
2026-05-07 18:42 50.16774 -1.96416 15014 ft 413 kts 207°
2026-05-07 18:42 50.14211 -1.98391 15011 ft 399 kts 207°
2026-05-07 18:43 50.11849 -2.00208 15006 ft 360 kts 207°
2026-05-07 18:43 50.09665 -2.01889 15010 ft 349 kts 207°
2026-05-07 18:43 50.07504 -2.03552 15007 ft 348 kts 207°
2026-05-07 18:43 50.05349 -2.05206 15011 ft 346 kts 207°
2026-05-07 18:44 50.03195 -2.06858 15009 ft 343 kts 207°
2026-05-07 18:44 50.01055 -2.08497 15008 ft 345 kts 206°
2026-05-07 18:44 49.98906 -2.10134 15007 ft 344 kts 206°
2026-05-07 18:44 49.96621 -2.11249 15010 ft 344 kts 193°
2026-05-07 18:45 49.94265 -2.12007 15014 ft 348 kts 193°
2026-05-07 18:45 49.91965 -2.12775 15017 ft 321 kts 193°
2026-05-07 18:45 49.89888 -2.13504 15005 ft 297 kts 194°
2026-05-07 18:45 49.88549 -2.13972 15005 ft 300 kts 193°
2026-05-07 18:46 49.86517 -2.14665 15009 ft 299 kts 193°
2026-05-07 18:46 49.84491 -2.15350 15009 ft 297 kts 193°
2026-05-07 18:46 49.82464 -2.16040 15011 ft 298 kts 193°
2026-05-07 18:46 49.80448 -2.16728 15024 ft 297 kts 193°
2026-05-07 18:47 49.78425 -2.17419 15026 ft 298 kts 193°
2026-05-07 18:47 49.76404 -2.18104 15020 ft 299 kts 193°
2026-05-07 18:47 49.74388 -2.18788 14911 ft 292 kts 193°
2026-05-07 18:47 49.72397 -2.19464 14050 ft 294 kts 193°
2026-05-07 18:48 49.70406 -2.20195 13187 ft 294 kts 197°
2026-05-07 18:48 49.68464 -2.21097 12478 ft 288 kts 197°
2026-05-07 18:48 49.66548 -2.21924 11741 ft 284 kts 196°
2026-05-07 18:48 49.64680 -2.22738 11067 ft 280 kts 197°
2026-05-07 18:49 49.62812 -2.23578 10447 ft 281 kts 197°
2026-05-07 18:49 49.60955 -2.24412 9917 ft 275 kts 197°
2026-05-07 18:49 49.59142 -2.25218 9384 ft 267 kts 196°
2026-05-07 18:49 49.57387 -2.25996 8847 ft 259 kts 196°
2026-05-07 18:50 49.55673 -2.26759 8320 ft 255 kts 196°
2026-05-07 18:50 49.53981 -2.27511 7756 ft 252 kts 196°
2026-05-07 18:50 49.52295 -2.28259 7108 ft 251 kts 195°
2026-05-07 18:50 49.50625 -2.29001 6517 ft 249 kts 195°
2026-05-07 18:51 49.48964 -2.29738 5865 ft 247 kts 195°
2026-05-07 18:51 49.47316 -2.30467 5304 ft 245 kts 195°
2026-05-07 18:51 49.45689 -2.31187 4853 ft 243 kts 195°
2026-05-07 18:51 49.44069 -2.31901 4390 ft 242 kts 194°
2026-05-07 18:52 49.42463 -2.32610 4079 ft 237 kts 195°
2026-05-07 18:52 49.40869 -2.33317 3940 ft 240 kts 195°
2026-05-07 18:52 49.39265 -2.34026 3796 ft 239 kts 195°
2026-05-07 18:52 49.37664 -2.34733 3650 ft 237 kts 195°
2026-05-07 18:53 49.36067 -2.35436 3493 ft 239 kts 194°
2026-05-07 18:53 49.34463 -2.36143 3338 ft 239 kts 194°
2026-05-07 18:53 49.32848 -2.36854 2911 ft 242 kts 194°
2026-05-07 18:53 49.31234 -2.37566 2396 ft 239 kts 194°
2026-05-07 18:54 49.29659 -2.38258 1982 ft 236 kts 194°
2026-05-07 18:54 49.28084 -2.38949 1985 ft 238 kts 193°
2026-05-07 18:54 49.26503 -2.39644 1998 ft 236 kts 194°
2026-05-07 18:54 49.24916 -2.40353 2001 ft 237 kts 194°
2026-05-07 18:55 49.23309 -2.40948 1968 ft 239 kts 184°
2026-05-07 18:55 49.21717 -2.40508 1975 ft 227 kts 158°
2026-05-07 18:55 49.20584 -2.39297 1972 ft 181 kts 135°
2026-05-07 18:55 49.19928 -2.37854 1966 ft 154 kts 118°
2026-05-07 18:56 49.19639 -2.36452 1959 ft 125 kts 105°
2026-05-07 18:56 49.19568 -2.35138 1935 ft 124 kts 88°
2026-05-07 18:56 49.19653 -2.33813 1987 ft 127 kts 90°
2026-05-07 18:56 49.19744 -2.32439 1869 ft 131 kts 88°
2026-05-07 18:57 49.19847 -2.31088 1703 ft 126 kts 88°
2026-05-07 18:57 49.19958 -2.29764 1522 ft 126 kts 87°
2026-05-07 18:57 49.20067 -2.28456 1381 ft 122 kts 87°
2026-05-07 18:57 49.20170 -2.27176 1196 ft 121 kts 86°
2026-05-07 18:58 49.20278 -2.25903 1009 ft 121 kts 86°
2026-05-07 18:58 49.20382 -2.24635 834 ft 120 kts 86°
2026-05-07 18:58 49.20488 -2.23369 678 ft 121 kts 85°
2026-05-07 18:58 49.20590 -2.22086 505 ft 123 kts 85°
2026-05-07 18:59 49.20697 -2.20796 354 ft 122 kts 84°
2026-05-07 18:59 49.20793 -2.19606 279 ft 86 kts 82°
2026-05-07 18:59 49.20800 -2.19062 279 ft 29 kts 106°
2026-05-07 18:59 49.20748 -2.18866 279 ft 13 kts 127°
2026-05-07 19:00 49.20710 -2.18865 279 ft 1 kts 248°
2026-05-07 19:00 49.20704 -2.18894 279 ft 6 kts 251°
2026-05-07 19:00 49.20696 -2.18966 278 ft 7 kts 261°
2026-05-07 19:00 49.20689 -2.19041 278 ft 7 kts 263°
2026-05-07 19:01 49.20683 -2.19116 278 ft 7 kts 263°
2026-05-07 19:01 49.20680 -2.19189 278 ft 7 kts 273°
2026-05-07 19:01 49.20688 -2.19252 278 ft 6 kts 285°
2026-05-07 19:01 49.20699 -2.19310 278 ft 6 kts 285°
2026-05-07 19:02 49.20708 -2.19370 278 ft 6 kts 282°
2026-05-07 19:02 49.20710 -2.19427 278 ft 5 kts 265°
2026-05-07 19:02 49.20705 -2.19477 278 ft 0 kts 260°
2026-05-07 19:04 49.20702 -2.19499 278 ft 9 kts 260°
2026-05-07 19:05 49.20674 -2.19632 277 ft 14 kts 232°
2026-05-07 19:05 49.20615 -2.19711 277 ft 5 kts 267°
2026-05-07 19:05 49.20612 -2.19768 277 ft 6 kts 264°
2026-05-07 19:05 49.20606 -2.19851 277 ft 8 kts 264°
2026-05-07 19:06 49.20585 -2.19927 277 ft 9 kts 214°
2026-05-07 19:06 49.20455 -2.19914 277 ft 10 kts 163°
2026-05-07 19:06 49.20434 -2.19844 277 ft 7 kts 83°
2026-05-07 19:07 49.20442 -2.19717 277 ft 16 kts 85°
2026-05-07 19:07 49.20423 -2.19552 277 ft 16 kts 104°
2026-05-07 19:07 49.20400 -2.19393 278 ft 15 kts 89°
2026-05-07 19:07 49.20412 -2.19238 278 ft 14 kts 80°
2026-05-07 19:08 49.20452 -2.19165 278 ft 0 kts 356°
2026-05-07 19:08 49.20474 -2.19147 278 ft 11 kts 41°
2026-05-07 19:08 49.20466 -2.19109 278 ft 0 kts 201°